星链-35021 (STARLINK-35021)

导读 | 豆包AI

STARLINK-35021是美国于2025年8月22日发射的星链计划卫星,星链项目由SpaceX主导,旨在构建覆盖全球的低轨卫星互联网星座,为偏远地区及网络欠发达区域提供高速宽带接入服务,该卫星入轨后将助力拓展星座服务覆盖范围与网络容量,推动全球卫星互联网基础设施建设。

基本信息
目录编号:
65282
目录名称:
STARLINK-35021
国际标识:
2025-184K
轨道中心:
EARTH
卫星名称:
星链-35021
卫星全名:
星链-35021 (STARLINK-35021)
卫星状态:
在轨 (已飞行225 天)
发射日期:
2025-08-22 UTC
国别 :
美国 (US)
星等 :
--
轨道信息
数据来源 国际轨道数据
星历时间: 2026-04-04T01:40:01+0800
17小时前
查看轨道信息
半长轴: 6927.65km
偏心率: 0.0001958
轨道倾角: 97.602°
近地点辐角 91.961°
升交点赤经 147.412°
平近点角 268.184°
近地点: 548.156km
远地点: 550.87km
周期: 95.640分钟
每日圈数: 15.056494
详细信息
固有亮度:
5
最大亮度:
2.5
卫星平台:
Starlink V1.0
覆盖范围:
全球
运营商:
太空探索技术公司
运营商所在国:
美国
制造商(研发单位):
太空探索技术公司
制造商所在国:
美国
使用方式:
暂无
卫星简介
Starlink 计划是 SpaceX 推出的全球卫星互联网项目,通过发射低轨道卫星,为全球尤其是偏远地区提供高速、低延迟的互联网服务。自 2019 年起,Starlink 已部署数千颗卫星,旨在缩小全球数字鸿沟,推动互联网普及。该项目还为军事、航空等行业提供通信支持,带来广泛经济效益。
2D轨道图
3D轨道图
轨道高度分析图
轨道倾角分析图
轨道综合分析图
查看轨道综合分析图